FW0924 Weather Reports


Display with metric or nautical units.
time (UTC)temp
F
wind
direction
speed
MPH
gust
MPH
rain 1hr
in
rain 24hr
in
rain mn
in
humidity
%
barometer
mb
20181019012541 86 70 1.0 3.0 0.00 0.12 0.01 40 1015.9
20181019012040 86 20 1.0 3.0 0.00 0.12 0.01 41 1015.9
20181019011539 84 303 0.0 3.0 0.00 0.12 0.01 45 1016.0
20181019011038 83 77 1.0 3.0 0.00 0.12 0.01 46 1016.1
20181019010537 84 81 1.0 3.0 0.00 0.12 0.01 46 1016.2
20181019010036 83 195 1.0 3.0 0.00 0.12 0.01 46 1016.2
20181019005535 83 186 1.0 4.0 0.00 0.12 0.01 48 1016.3
20181019005034 83 287 0.0 2.0 0.00 0.12 0.01 50 1016.4
20181019004533 83 319 1.0 3.0 0.00 0.12 0.01 51 1016.5
20181019004031 85 65 1.0 4.0 0.00 0.12 0.01 51 1016.5
20181019003531 84 332 0.0 2.0 0.00 0.12 0.01 51 1016.6
20181019003029 82 355 1.0 3.0 0.00 0.12 0.01 54 1016.7
20181019002528 81 185 1.0 3.0 0.00 0.12 0.01 57 1016.7
20181019002027 81 325 1.0 4.0 0.00 0.12 0.01 57 1016.8
20181019001526 80 67 1.0 3.0 0.00 0.12 0.01 59 1016.9
20181019001025 80 228 0.0 2.0 0.00 0.12 0.01 60 1016.9
20181019000524 80 293 1.0 3.0 0.00 0.12 0.01 62 1016.9
20181019000023 79 355 1.0 3.0 0.00 0.12 0.01 66 1017.0
20181018235522 77 186 0.0 3.0 0.00 0.12 0.01 69 1017.1
20181018235021 76 160 1.0 3.0 0.00 0.12 0.01 70 1017.1
20181018234519 76 213 2.0 4.0 0.00 0.12 0.01 67 1017.2
20181018234019 77 244 1.0 3.0 0.00 0.12 0.01 68 1017.3
20181018233517 76 36 0.0 2.0 0.00 0.12 0.01 71 1017.3
20181018233016 75 69 0.0 3.0 0.00 0.12 0.01 72 1017.4
20181018232615 75 327 2.0 4.0 0.00 0.12 0.01 74 1017.5
20181018232114 74 41 1.0 3.0 0.00 0.12 0.01 77 1017.5
20181018231613 72 22 0.0 3.0 0.00 0.12 0.01 79 1017.6
20181018231112 71 2 2.0 5.0 0.00 0.12 0.01 83 1017.7
20181018230611 70 347 2.0 3.0 0.00 0.12 0.01 89 1017.7
20181018230109 70 324 0.0 3.0 0.00 0.12 0.01 92 1017.7
20181018225608 69 65 0.0 2.0 0.00 0.12 0.01 94 1017.8
20181018225108 69 11 1.0 5.0 0.00 0.12 0.01 96 1017.7
20181018224606 67 7 1.0 3.0 0.00 0.12 0.01 97 1017.8
20181018224105 66 0 2.0 6.0 0.00 0.12 0.01 98 1017.8
20181018223604 66 0 1.0 4.0 0.00 0.12 0.01 98 1017.8
20181018223103 65 270 0.0 2.0 0.00 0.12 0.01 99 1017.8
20181018222602 65 344 2.0 5.0 0.00 0.12 0.01 99 1017.8
20181018222100 65 316 1.0 4.0 0.00 0.12 0.01 99 1017.8
20181018221600 65 17 0.0 5.0 0.00 0.12 0.01 99 1017.8
20181018221058 64 331 0.0 3.0 0.00 0.12 0.01 98 1017.7
20181018220557 63 306 1.0 3.0 0.00 0.12 0.01 97 1017.7
20181018220056 63 315 1.0 4.0 0.00 0.12 0.01 97 1017.7
20181018215555 63 2 2.0 4.0 0.00 0.12 0.01 97 1017.8
20181018215054 64 351 1.0 4.0 0.00 0.12 0.01 97 1017.8
20181018214552 64 284 0.0 1.0 0.00 0.12 0.01 97 1017.7
20181018214048 63 45 0.0 3.0 0.00 0.12 0.01 97 1017.7
20181018213547 63 0 0.0 3.0 0.00 0.12 0.01 97 1017.6
20181018213046 63 285 1.0 3.0 0.00 0.12 0.01 97 1017.7
20181018212545 63 278 1.0 3.0 0.00 0.12 0.01 97 1017.6
20181018212043 63 270 0.0 3.0 0.00 0.12 0.01 97 1017.6
20181018211542 63 332 1.0 3.0 0.00 0.12 0.01 97 1017.5
20181018211041 63 337 1.0 3.0 0.00 0.12 0.01 97 1017.5
20181018210540 63 0 0.0 2.0 0.00 0.12 0.01 97 1017.5
20181018210039 63 0 0.0 3.0 0.00 0.12 0.01 97 1017.6
20181018205538 63 0.0 1.0 0.00 0.12 0.01 97 1017.5
20181018205037 63 8 1.0 3.0 0.00 0.12 0.01 97 1017.4
20181018204536 63 334 0.0 3.0 0.00 0.12 0.01 97 1017.4
20181018204035 62 0 0.0 1.0 0.00 0.12 0.01 97 1017.4
20181018203534 63 295 1.0 4.0 0.00 0.12 0.01 97 1017.3
20181018203033 62 0.0 0.0 0.00 0.12 0.01 97 1017.2
20181018202532 62 0.0 1.0 0.00 0.12 0.01 97 1017.1
20181018202031 62 315 0.0 1.0 0.00 0.12 0.01 97 1016.9
20181018201529 62 0.0 0.0 0.00 0.12 0.01 97 1016.8
20181018201028 62 45 0.0 2.0 0.00 0.12 0.01 97 1016.7
20181018200527 62 22 1.0 2.0 0.00 0.12 0.01 97 1016.7
20181018200026 62 0 1.0 3.0 0.01 0.12 0.01 97 1016.7
20181018195525 62 0.0 1.0 0.01 0.12 0.01 97 1016.6
20181018195024 62 0 2.0 3.0 0.01 0.12 0.01 97 1016.6
20181018194523 62 347 1.0 3.0 0.01 0.12 0.01 97 1016.6
20181018194022 62 0.0 0.0 0.01 0.14 0.01 97 1016.5
20181018193520 62 135 0.0 3.0 0.01 0.14 0.01 97 1016.5
20181018193019 62 353 0.0 3.0 0.01 0.14 0.01 97 1016.6
20181018192519 62 12 1.0 3.0 0.01 0.14 0.01 97 1016.6
20181018192017 62 23 2.0 6.0 0.01 0.14 0.01 97 1016.5
20181018191516 62 10 0.0 2.0 0.01 0.14 0.01 97 1016.5
20181018191115 62 353 1.0 3.0 0.01 0.14 0.01 97 1016.4
20181018190614 62 338 0.0 3.0 0.01 0.14 0.01 97 1016.3
20181018190113 62 0 0.0 2.0 0.00 0.12 0.00 97 1016.3
20181018185612 62 0 0.0 3.0 0.00 0.12 0.00 97 1016.1
20181018185110 62 315 0.0 1.0 0.00 0.12 0.00 97 1016.1
20181018184609 62 315 0.0 1.0 0.00 0.12 0.00 97 1016.1
20181018184108 62 4 1.0 2.0 0.00 0.12 0.00 97 1016.0
20181018183607 62 0 0.0 2.0 0.00 0.12 0.00 97 1016.0
20181018183106 62 0 0.0 2.0 0.00 0.12 0.00 97 1015.9
20181018182605 62 335 0.0 3.0 0.00 0.12 0.00 97 1015.9
20181018182103 62 0 0.0 2.0 0.00 0.12 0.00 97 1015.9
20181018181603 62 355 0.0 4.0 0.00 0.12 0.00 97 1015.8
20181018181101 62 348 0.0 3.0 0.00 0.12 0.00 97 1015.7
20181018180600 62 0 0.0 1.0 0.00 0.12 0.00 97 1015.6
20181018180059 62 352 0.0 4.0 0.00 0.12 0.00 97 1015.5
20181018175558 62 14 0.0 3.0 0.00 0.12 0.00 97 1015.5
20181018175057 62 13 0.0 3.0 0.00 0.12 0.00 97 1015.6
20181018174556 62 0 0.0 1.0 0.00 0.12 0.00 97 1015.5
20181018174055 63 9 0.0 2.0 0.00 0.12 0.00 97 1015.6
20181018173554 63 46 0.0 1.0 0.00 0.12 0.00 97 1015.5
20181018173052 63 0.0 1.0 0.00 0.12 0.00 97 1015.5
20181018172548 63 357 0.0 3.0 0.00 0.12 0.00 97 1015.6
20181018172046 63 29 0.0 3.0 0.00 0.12 0.00 97 1015.5
20181018171545 63 0 0.0 2.0 0.00 0.12 0.00 97 1015.5
20181018171044 63 344 0.0 2.0 0.00 0.12 0.00 97 1015.4
20181018170543 63 0.0 0.0 0.00 0.12 0.00 97 1015.4
20181018170042 63 0 0.0 1.0 0.00 0.12 0.00 97 1015.4
20181018165541 63 16 1.0 3.0 0.00 0.12 0.00 97 1015.4
20181018165040 63 0 0.0 2.0 0.00 0.12 0.00 97 1015.4
20181018164539 63 0.0 0.0 0.00 0.12 0.00 97 1015.4
20181018164038 63 17 0.0 2.0 0.00 0.12 0.00 97 1015.5
20181018163536 63 0.0 0.0 0.00 0.12 0.00 97 1015.6
20181018163035 63 45 0.0 3.0 0.00 0.12 0.00 97 1015.6
20181018162534 63 0.0 0.0 0.00 0.12 0.00 97 1015.6
20181018162034 63 45 0.0 2.0 0.00 0.12 0.00 97 1015.8
20181018161532 63 0 0.0 2.0 0.00 0.12 0.00 97 1015.7
20181018161031 63 0 0.0 3.0 0.00 0.12 0.00 97 1015.7
20181018160530 63 0 0.0 2.0 0.00 0.12 0.00 97 1015.7
20181018160029 63 45 0.0 1.0 0.00 0.12 0.00 97 1015.7
20181018155528 63 45 0.0 1.0 0.00 0.12 0.00 97 1015.8
20181018155027 63 0.0 0.0 0.00 0.12 0.00 97 1015.8
20181018154526 63 0.0 0.0 0.00 0.12 0.00 97 1015.7
20181018154025 63 0.0 0.0 0.00 0.12 0.00 97 1015.8
20181018153523 63 0.0 0.0 0.00 0.12 0.00 97 1015.9
20181018153022 63 0 0.0 0.0 0.00 0.12 0.00 97 1015.9
20181018152521 63 0.0 0.0 0.00 0.12 0.00 97 1015.8
20181018152020 63 0.0 0.0 0.00 0.12 0.00 97 1015.9
20181018151519 63 0.0 0.0 0.00 0.12 0.00 96 1015.9
20181018151018 62 0.0 0.0 0.00 0.12 0.00 96 1015.9
20181018150517 62 0.0 0.0 0.00 0.12 0.00 96 1016.0
20181018150015 62 0.0 0.0 0.00 0.12 0.00 97 1016.2
20181018145615 62 0.0 0.0 0.00 0.12 0.00 97 1016.3
20181018145116 61 0.0 0.0 0.00 0.12 0.00 97 1016.4
20181018144612 61 0.0 0.0 0.00 0.12 0.00 97 1016.4
20181018144111 61 0.0 0.0 0.00 0.12 0.00 97 1016.4
20181018143610 61 0.0 0.0 0.00 0.12 0.00 97 1016.5
20181018143109 61 0.0 0.0 0.00 0.12 0.00 97 1016.5
20181018142608 60 0.0 0.0 0.00 0.12 0.00 97 1016.5
20181018142107 60 0.0 0.0 0.00 0.12 0.00 97 1016.6
20181018141606 60 0.0 0.0 0.00 0.12 0.00 97 1016.6
20181018141105 60 0.0 0.0 0.00 0.12 0.00 97 1016.6
20181018140604 60 0.0 0.0 0.00 0.12 0.00 97 1016.7
20181018140102 60 0.0 0.0 0.00 0.12 0.00 97 1016.8
20181018135601 60 0.0 0.0 0.00 0.12 0.00 97 1016.8
20181018135101 60 0.0 0.0 0.00 0.12 0.00 97 1016.8
20181018134559 60 0.0 0.0 0.00 0.12 0.00 97 1016.8
20181018134058 60 0.0 0.0 0.00 0.12 0.00 97 1016.8
20181018133557 60 0.0 0.0 0.00 0.12 0.00 97 1016.8
20181018133056 60 0.0 0.0 0.00 0.12 0.00 97 1016.9
20181018132555 60 0.0 0.0 0.00 0.12 0.00 97 1016.9
20181018132054 60 0.0 0.0 0.00 0.12 0.00 97 1017.1
20181018131553 60 0.0 0.0 0.00 0.12 0.00 97 1017.1
20181018131052 60 0.0 0.0 0.00 0.12 0.00 96 1017.1
20181018130549 60 0.0 0.0 0.00 0.12 0.00 96 1017.2
20181018130048 60 90 0.0 2.0 0.00 0.12 0.00 96 1017.2
20181018125547 60 0.0 0.0 0.00 0.12 0.12 96 1017.2
20181018125046 60 0.0 0.0 0.00 0.12 0.12 96 1017.3
20181018124545 61 0.0 0.0 0.00 0.14 0.12 96 1017.3
20181018124044 61 0.0 0.0 0.00 0.14 0.12 96 1017.2
20181018123542 61 0.0 0.0 0.00 0.14 0.12 96 1017.2
20181018123042 61 0.0 0.0 0.00 0.14 0.12 96 1017.2
20181018122540 61 0.0 0.0 0.00 0.14 0.12 96 1017.2
20181018122039 61 0.0 0.0 0.00 0.14 0.12 96 1017.2
20181018121538 61 0.0 0.0 0.00 0.15 0.12 96 1017.2
20181018121037 61 0.0 0.0 0.00 0.15 0.12 96 1017.2
20181018120536 61 0.0 0.0 0.00 0.16 0.12 96 1017.3
20181018120035 61 0.0 0.0 0.00 0.17 0.12 96 1017.3
20181018115534 61 0.0 0.0 0.00 0.18 0.12 96 1017.4
20181018115033 62 0.0 0.0 0.00 0.20 0.12 96 1017.3
20181018114532 62 0.0 0.0 0.00 0.20 0.12 96 1017.3
20181018114030 62 0.0 0.0 0.00 0.21 0.12 96 1017.3
20181018113531 62 0.0 0.0 0.00 0.25 0.12 96 1017.2
20181018113029 62 0.0 0.0 0.00 0.36 0.12 95 1017.2
20181018112527 62 0.0 0.0 0.00 0.37 0.12 95 1017.3
20181018112026 62 0.0 0.0 0.00 0.40 0.12 95 1017.3
20181018111525 62 0.0 0.0 0.00 0.40 0.12 95 1017.3
20181018111024 62 0.0 0.0 0.00 0.41 0.12 94 1017.2
20181018110523 62 0.0 0.0 0.00 0.42 0.12 94 1017.2
20181018110022 62 0.0 0.0 0.00 0.43 0.12 94 1017.1
20181018105521 62 0.0 0.0 0.00 0.44 0.12 94 1017.0
20181018105020 63 0.0 0.0 0.00 0.44 0.12 94 1017.0
20181018104519 63 0.0 0.0 0.00 0.44 0.12 94 1017.0
20181018104017 63 315 0.0 1.0 0.00 0.44 0.12 94 1016.9
20181018103516 63 328 0.0 2.0 0.00 0.46 0.12 94 1016.8
20181018103115 63 17 1.0 2.0 0.00 0.47 0.12 94 1016.9
20181018102614 63 0 1.0 3.0 0.00 0.48 0.12 94 1016.9
20181018102113 63 7 0.0 1.0 0.00 0.48 0.12 94 1017.0
20181018101614 63 0 0.0 2.0 0.00 0.49 0.12 94 1017.1
20181018101111 63 0 1.0 3.0 0.00 0.49 0.12 93 1017.2
20181018100610 63 38 0.0 2.0 0.00 0.50 0.12 93 1017.2
20181018100108 64 0 0.0 2.0 0.00 0.51 0.12 93 1017.2
20181018095607 64 90 0.0 3.0 0.00 0.51 0.12 93 1017.2
20181018095106 64 67 0.0 1.0 0.00 0.51 0.12 93 1017.3
20181018094605 64 0 0.0 3.0 0.00 0.51 0.12 95 1017.1
20181018094104 64 10 0.0 2.0 0.00 0.51 0.12 95 1017.0
20181018093604 64 40 0.0 2.0 0.00 0.51 0.12 95 1017.0
20181018093102 64 45 0.0 2.0 0.00 0.51 0.12 95 1017.0
20181018092602 64 335 0.0 2.0 0.00 0.51 0.12 95 1016.9
20181018092100 64 348 1.0 3.0 0.00 0.53 0.12 95 1016.8
20181018091559 64 321 2.0 6.0 0.00 0.54 0.12 95 1016.6
20181018091057 65 336 0.0 3.0 0.00 0.57 0.12 95 1016.5
20181018090557 65 82 0.0 3.0 0.00 0.57 0.12 95 1016.3
20181018090056 65 76 0.0 3.0 0.00 0.57 0.12 95 1016.3
20181018085554 65 348 1.0 4.0 0.00 0.57 0.12 95 1016.1
20181018085053 65 77 1.0 3.0 0.00 0.57 0.12 95 1016.1
20181018084552 65 27 1.0 3.0 0.00 0.57 0.12 95 1015.9
20181018084049 66 48 1.0 3.0 0.00 0.57 0.12 94 1015.9
20181018083548 66 25 2.0 4.0 0.00 0.57 0.12 93 1015.7
20181018083047 66 48 1.0 3.0 0.00 0.57 0.12 93 1015.6
20181018082546 66 29 2.0 7.0 0.00 0.57 0.12 93 1015.6
20181018082045 66 0 0.0 2.0 0.00 0.57 0.12 93 1015.4
20181018081544 66 26 2.0 6.0 0.01 0.57 0.12 93 1015.3
20181018081043 66 78 0.0 7.0 0.01 0.57 0.12 93 1015.3
20181018080542 66 32 0.0 2.0 0.01 0.57 0.12 93 1015.3
20181018080042 66 45 1.0 5.0 0.01 0.57 0.12 93 1015.3
20181018075539 67 79 1.0 6.0 0.01 0.57 0.12 93 1015.3
20181018075038 67 58 0.0 2.0 0.02 0.57 0.12 94 1015.2
20181018074531 66 35 0.0 3.0 0.02 0.57 0.12 93 1015.1
20181018074030 66 70 0.0 3.0 0.02 0.57 0.12 93 1015.1
20181018073529 66 68 0.0 3.0 0.02 0.57 0.12 93 1015.1
20181018073028 66 156 1.0 5.0 0.02 0.57 0.12 93 1015.0
20181018072529 66 30 1.0 5.0 0.02 0.57 0.12 93 1015.2
20181018072019 67 11 2.0 6.0 0.04 0.57 0.12 93 1015.1
20181018071520 67 57 1.0 5.0 0.04 0.56 0.11 92 1015.1
20181018071016 67 59 0.0 1.0 0.04 0.56 0.11 92 1015.1
20181018070515 67 32 0.0 3.0 0.04 0.56 0.11 92 1015.1
20181018070114 67 51 0.0 2.0 0.04 0.56 0.11 92 1015.0
20181018065608 67 0 0.0 3.0 0.04 0.56 0.11 91 1015.0
20181018065107 68 53 0.0 3.0 0.03 0.55 0.10 90 1015.0
20181018064606 68 127 0.0 2.0 0.03 0.55 0.10 90 1014.9
20181018064105 68 31 0.0 2.0 0.03 0.55 0.10 89 1014.8
20181018063604 69 22 0.0 1.0 0.03 0.55 0.10 88 1014.7
20181018063103 69 45 0.0 1.0 0.03 0.55 0.10 86 1014.7
20181018062556 70 90 0.0 2.0 0.03 0.55 0.10 83 1014.7
20181018062055 70 90 0.0 3.0 0.01 0.53 0.08 82 1014.7
20181018061545 71 104 0.0 2.0 0.00 0.51 0.07 80 1014.7
20181018061044 71 72 0.0 3.0 0.00 0.51 0.07 81 1014.8
20181018060542 71 45 0.0 3.0 0.00 0.51 0.07 82 1014.9
20181018060041 71 37 0.0 2.0 0.00 0.53 0.07 83 1014.7
20181018055540 71 90 0.0 1.0 0.00 0.53 0.07 83 1014.6
20181018055039 71 79 2.0 5.0 0.00 0.53 0.07 83 1014.7
20181018054532 71 116 1.0 4.0 0.00 0.55 0.07 81 1014.8
20181018054031 72 96 3.0 8.0 0.00 0.57 0.07 79 1014.8
20181018053530 72 90 2.0 6.0 0.00 0.60 0.07 77 1014.7
20181018053029 73 90 1.0 3.0 0.00 0.60 0.07 74 1014.7
20181018052528 74 86 2.0 4.0 0.05 0.61 0.07 72 1014.7
20181018052026 74 93 3.0 7.0 0.05 0.61 0.07 72 1014.7
20181018051519 74 138 2.0 4.0 0.05 0.61 0.07 69 1014.7
20181018051019 74 190 4.0 8.0 0.05 0.61 0.07 68 1014.8
20181018050517 75 135 3.0 9.0 0.05 0.61 0.07 71 1015.0
20181018050016 74 159 1.0 3.0 0.05 0.61 0.07 72 1014.9
20181018045515 73 263 1.0 3.0 0.05 0.61 0.07 74 1015.0
20181018045115 72 206 2.0 4.0 0.05 0.61 0.07 80 1015.0
20181018044607 71 261 1.0 4.0 0.05 0.61 0.07 83 1015.0
20181018044107 70 162 1.0 4.0 0.05 0.61 0.07 81 1014.8
20181018043605 71 179 1.0 4.0 0.05 0.61 0.07 74 1014.8
20181018043103 73 293 6.0 10.0 0.05 0.61 0.07 72 1014.7
20181018042602 75 314 3.0 6.0 0.00 0.55 0.01 73 1014.4
20181018042057 75 27 2.0 5.0 0.00 0.55 0.01 72 1013.9
20181018041555 76 352 3.0 7.0 0.00 0.55 0.01 69 1014.1
20181018041044 77 3 2.0 9.0 0.00 0.55 0.01 67 1014.2
20181018040543 77 35 0.0 3.0 0.00 0.55 0.01 66 1014.2
20181018040042 77 45 0.0 2.0 0.00 0.55 0.01 64 1014.1
20181018035541 77 90 1.0 4.0 0.00 0.55 0.01 63 1014.0
20181018035040 78 62 0.0 2.0 0.00 0.55 0.01 62 1014.2
20181018034539 79 81 1.0 6.0 0.00 0.55 0.01 62 1014.2
20181018034032 79 57 2.0 4.0 0.00 0.55 0.01 61 1014.1
20181018033531 80 105 2.0 6.0 0.00 0.55 0.01 57 1014.0
20181018033029 83 74 3.0 7.0 0.00 0.55 0.01 53 1014.1
20181018032528 84 126 2.0 4.0 0.00 0.55 0.01 52 1014.2
20181018032028 82 12 2.0 6.0 0.00 0.55 0.01 53 1014.4
20181018031526 81 313 1.0 6.0 0.00 0.55 0.01 55 1014.5
20181018031019 81 3 2.0 6.0 0.00 0.55 0.01 52 1014.6
20181018030518 81 11 1.0 6.0 0.00 0.55 0.01 54 1014.7
20181018030017 80 12 2.0 7.0 0.00 0.55 0.01 57 1014.9
20181018025516 79 52 1.0 6.0 0.00 0.55 0.01 60 1015.0
20181018025115 79 7 0.0 3.0 0.00 0.55 0.01 62 1015.1
20181018024608 79 45 0.0 3.0 0.00 0.55 0.01 61 1015.2
20181018024107 79 0 0.0 2.0 0.00 0.55 0.01 63 1015.1
20181018023605 78 37 0.0 2.0 0.00 0.55 0.01 64 1015.2
20181018023105 77 0 0.0 2.0 0.00 0.55 0.01 71 1015.2
20181018022603 77 0.0 1.0 0.00 0.55 0.01 71 1015.2
20181018022102 76 0.0 0.0 0.00 0.55 0.01 71 1015.4
20181018021556 76 14 0.0 2.0 0.00 0.55 0.01 70 1015.6
20181018021054 76 7 1.0 3.0 0.00 0.55 0.01 69 1015.6
20181018020544 76 2 1.0 3.0 0.00 0.55 0.01 70 1015.8
20181018020043 77 338 1.0 3.0 0.00 0.55 0.01 67 1015.9
20181018015542 77 349 1.0 3.0 0.00 0.55 0.01 64 1016.0
20181018015041 77 31 1.0 3.0 0.00 0.55 0.01 62 1015.9
20181018014540 77 51 1.0 3.0 0.00 0.55 0.01 61 1016.0
20181018014039 78 0 3.0 9.0 0.00 0.55 0.01 60 1016.0
20181018013532 79 307 3.0 6.0 0.00 0.55 0.01 58 1016.0
20181018013031 80 325 4.0 10.0 0.00 0.55 0.01 58 1016.1